Godman Army Air Field Fort Knox US
ICAO: KFTK
IATA: FTK
Category: Medium
Scheduled Services: No

Elevation: 756 ft
TransAlt. 18000 ft.

Airport Communications:
LOUISVILLE APP/DEP:123.675
ATIS:109.6
CTAF:126.8
GND:121.9
AIR TO AIR:23.75
BASE OPS:126.2
TWR:126.8

KFTK Zoom In..

If you have problems with the map follow the link
https://www.worldairports.se/pages/airport.php?
ICAO=KFTK

Runways:

(A) RW 05 length 2366 ft width 90 ft
---- / hdg 49

(B) RW 15 length 4853 ft width 75 ft
---- / hdg 151

(C) RW 18 length 5185 ft width 148 ft
---- / hdg 179

(D) RW 23 length 2366 ft width 90 ft
---- / hdg 229

(E) RW 33 length 4853 ft width 75 ft
---- / hdg 331

(F) RW 36 length 5185 ft width 148 ft
---- / hdg 359

Location; KFTK
Day. 08 / Time. 04.56 Zulu
* Altimeter: 30.26
* Temperature: 02° c. 35.6°f.
* Wind from: 080° Speed 03 kn.
Dewpoint: 01° c.
Visibility: 10 Statute Miles.
Clouds: Clear (automated report).

KFTK 080456Z AUTO 08003KT 10SM CLR 02/01 A3026 RMK AO2 SLP255 T00160007 400911020


Wind From 080°
Speed 03 kn.

 
 
jpsmedia worldairports.se 2019   terms of use